Watsonville, CA

5:00 AM PDT on September 25, 2017 (GMT -0700)
Watsonville Municipal

Weather History for KWVI - October, 2012

Change the Weather History Date:

Monday, October 22, 2012

  Actual Average Record
Temperature  
Mean Temperature 58 °F 60 °F  
Max Temperature 64 °F 72 °F 91 °F (2008)
Min Temperature 51 °F 48 °F 44 °F (2006)
Degree Days  
Heating Degree Days 7    
Month to date heating degree days 74  
Since 1 July heating degree days 439  
Cooling Degree Days 0    
Month to date cooling degree days 42  
Year to date cooling degree days 68  
Growing Degree Days 7 (Base 50)    
Moisture  
Dew Point 51 °F    
Average Humidity 75    
Maximum Humidity 93    
Minimum Humidity 56    
Precipitation  
Precipitation 0.16 in - 0.16 in (2012)
Month to date precipitation 0.29  
Year to date precipitation 12.27  
Since 1 July precipitation 0.34  
Sea Level Pressure  
Sea Level Pressure 29.89 in    
Wind  
Wind Speed 4 mph (WSW)    
Max Wind Speed 20 mph    
Max Gust Speed 25 mph    
Visibility 9 miles    
Events Rain    
T = Trace of Precipitation, MM = Missing Value Source: NWS Daily Summary

Daily Weather History Graph

Daily Weather History Graph

Search for Another Location

Airport or City:

Trip Planner

Search our weather history database for the weather conditions in past years. The results will help you decide how hot, cold, wet, or windy it might be!

Date:

Astronomy

Oct. 22, 2012 Rise Set
Actual Time 7:21 AM PDT 6:20 PM PDT
Civil Twilight 6:55 AM PDT 6:47 PM PDT
Nautical Twilight 6:25 AM PDT 7:17 PM PDT
Astronomical Twilight 5:55 AM PDT 7:47 PM PDT
Moon 2:23 PM PDT (10/22) 12:24 AM PDT (10/22)
Length of Visible Light 11h 51m
Length of Day
10h 58m
First Quarter, 57% of the Moon is Illuminated
Oct 22
First Quarter
Oct 29
Full
Nov 6
Last Quarter
Nov 13
New
Nov 20
First Quarter

Hourly Weather History & Observations

Time (PDT) Temp. Dew Point Humidity Pressure Visibility Wind Dir Wind Speed Gust Speed Precip Events Conditions
12:53 AM 53.1 °F 50.0 °F 89% 29.88 in 10.0 mi Calm Calm - 0.01 in Rain Light Rain
1:15 AM 51.8 °F 50.0 °F 94% 29.89 in 10.0 mi Calm Calm - 0.00 in   Overcast
1:53 AM 52.0 °F 50.0 °F 93% 29.90 in 10.0 mi Calm Calm - 0.00 in   Overcast
2:29 AM 53.6 °F 50.0 °F 88% 29.87 in 10.0 mi NNE 3.5 mph - N/A   Overcast
2:53 AM 53.1 °F 50.0 °F 89% 29.88 in 10.0 mi Calm Calm - N/A   Overcast
3:05 AM 53.6 °F 50.0 °F 88% 29.87 in 10.0 mi Calm Calm - N/A   Overcast
3:14 AM 53.6 °F 50.0 °F 88% 29.86 in 10.0 mi Calm Calm - N/A   Overcast
3:53 AM 53.1 °F 50.0 °F 89% 29.85 in 10.0 mi ENE 3.5 mph - 0.00 in Rain Light Rain
4:48 AM 53.6 °F 51.8 °F 94% 29.84 in 10.0 mi Calm Calm - 0.00 in Rain Light Rain
4:53 AM 54.0 °F 51.1 °F 90% 29.83 in 10.0 mi Calm Calm - 0.00 in Rain Light Rain
5:07 AM 53.6 °F 51.8 °F 94% 29.83 in 10.0 mi Calm Calm - 0.00 in Rain Light Rain
5:53 AM 53.1 °F 51.1 °F 93% 29.83 in 9.0 mi Calm Calm - 0.01 in Rain Light Rain
7:53 AM 53.1 °F 48.0 °F 83% 29.83 in 8.0 mi Calm Calm - 0.03 in Rain Light Rain
8:13 AM 53.6 °F 48.2 °F 82% 29.83 in 9.0 mi Calm Calm - 0.00 in Rain Light Rain
8:53 AM 53.1 °F 50.0 °F 89% 29.84 in 10.0 mi Calm Calm - 0.00 in Rain Light Rain
9:53 AM 53.1 °F 50.0 °F 89% 29.85 in 4.0 mi NNW 3.5 mph - 0.03 in Rain Light Rain
10:15 AM 53.6 °F 51.8 °F 94% 29.86 in 2.5 mi Calm Calm - 0.01 in Rain Light Rain
10:25 AM 53.6 °F 51.8 °F 94% 29.87 in 4.0 mi Calm Calm - 0.02 in Rain Light Rain
10:53 AM 53.1 °F 51.1 °F 93% 29.87 in 8.0 mi NW 3.5 mph - 0.03 in Rain Light Rain
11:53 AM 57.0 °F 54.0 °F 89% 29.88 in 10.0 mi SW 12.7 mph 17.3 mph N/A   Overcast
12:33 PM 60.8 °F 53.6 °F 77% 29.89 in 10.0 mi Variable 3.5 mph - N/A   Mostly Cloudy
12:48 PM 60.8 °F 53.6 °F 77% 29.89 in 10.0 mi Variable 6.9 mph - N/A   Mostly Cloudy
12:53 PM 61.0 °F 55.0 °F 81% 29.89 in 10.0 mi Variable 5.8 mph - N/A   Mostly Cloudy
1:10 PM 60.8 °F 53.6 °F 77% 29.89 in 10.0 mi SSW 12.7 mph - N/A   Scattered Clouds
1:53 PM 63.0 °F 50.0 °F 63% 29.89 in 10.0 mi SW 11.5 mph - N/A   Clear
2:53 PM 63.0 °F 46.0 °F 54% 29.90 in 10.0 mi WSW 13.8 mph 21.9 mph N/A   Clear
3:53 PM 61.0 °F 48.0 °F 62% 29.91 in 10.0 mi SW 12.7 mph 21.9 mph N/A   Clear
4:53 PM 59.0 °F 51.1 °F 75% 29.92 in 10.0 mi SSW 10.4 mph - N/A   Clear
6:53 PM 54.0 °F 51.1 °F 90% 29.94 in 10.0 mi South 4.6 mph - N/A   Clear
7:53 PM 53.1 °F 51.1 °F 93% 29.96 in 10.0 mi Calm Calm - N/A   Clear
8:53 PM 52.0 °F 48.9 °F 89% 29.96 in 10.0 mi Calm Calm - N/A   Mostly Cloudy
9:53 PM 51.1 °F 48.0 °F 89% 29.97 in 10.0 mi Calm Calm - N/A   Partly Cloudy
10:32 PM 51.8 °F 50.0 °F 94% 29.98 in 10.0 mi Calm Calm - 0.00 in Rain Light Rain
11:26 PM 51.8 °F 50.0 °F 94% 29.98 in 10.0 mi Calm Calm - 0.01 in   Overcast